Home > Weather > Tangier > Past weeks

Flag for Morocco Past Weather in Tangier, Morocco — Yesterday and Last 2 Weeks

Now
68 °F

Passing clouds.


Feels Like: 68 °F
Forecast: 65 / 86 °F
Wind: No wind

Location: Tanger Aerodrome

Current Time: Jul 2, 2016 at 4:02:39 AM

Latest Report: Jul 2, 2016 at 3:30 AM


Visibility: N/A

Pressure: 30.04 "Hg

Humidity: 83%

Dew Point: 63 °F

Location of TangierLocation

Past Weather in Tangier — Graph

°F

Tangier Temperature Yesterday

Maximum temperature yesterday: 77 °F (at 11:00 AM)
Minimum temperature yesterday: 68 °F (at 1:00 AM)
Average temperature yesterday: 72 °F

High & Low Weather Summary for the Past Weeks

 TemperatureHumidityPressure
High93 °F (Jun 24, 2:00 PM)94% (Jun 29, 3:30 AM)30.21 "Hg (Jun 29, 3:30 AM)
Low54 °F (Jun 18, 4:30 AM)24% (Jun 24, 4:00 PM)29.86 "Hg (Jun 27, 6:30 PM)
Average73 °F63%30.03 "Hg
* Reported Jun 17 3:00 AM — Jul 2 3:00 AM, Tangier, Weather by CustomWeather, © 2016

Note: Actual official high and low records may vary slightly from our data, if they occured in-between our weather recording intervals... More about our weather records

Advertising

Tangier Weather History for the Previous 24 Hours

Scroll right to see more
 ConditionsComfort  
Time TempWeatherWind HumidityBarometerVisibility
3:00 AM
Sat, Jul 2
68 °FPassing clouds.5 mph88%30.04 "HgN/A
2:30 AM68 °FPassing clouds.5 mph88%30.04 "HgN/A
2:00 AM68 °FPassing clouds.No wind83%30.04 "HgN/A
1:30 AM68 °FPassing clouds.5 mph88%30.07 "HgN/A
1:00 AM68 °FPassing clouds.6 mph88%30.07 "HgN/A
12:30 AM68 °FPassing clouds.8 mph88%30.07 "HgN/A
12:00 AM70 °FPassing clouds.7 mph83%30.07 "HgN/A
11:30 PM
Fri, Jul 1
68 °FPassing clouds.2 mph83%30.07 "HgN/A
11:00 PM68 °FPassing clouds.2 mph88%30.07 "HgN/A
10:30 PM68 °FPassing clouds.2 mph88%30.07 "HgN/A
10:00 PM68 °FPassing clouds.3 mph83%30.04 "HgN/A
9:30 PM68 °FPassing clouds.2 mph88%30.04 "HgN/A
9:00 PM68 °FPassing clouds.3 mph83%30.04 "Hg5 mi
8:30 PM70 °FPassing clouds.3 mph83%30.04 "Hg5 mi
8:00 PM70 °FPassing clouds.3 mph83%30.04 "HgN/A
7:30 PM72 °FClear.5 mph78%30.04 "Hg10 mi
7:00 PM73 °FClear.6 mph69%30.04 "Hg10 mi
6:30 PM75 °FPassing clouds.6 mph65%30.04 "HgN/A
6:00 PM75 °FPassing clouds.6 mph61%30.04 "HgN/A
5:30 PM75 °FPassing clouds.8 mph61%30.04 "HgN/A
5:00 PM75 °FPassing clouds.9 mph61%30.04 "HgN/A
4:30 PM75 °FPassing clouds.9 mph61%30.04 "HgN/A
4:00 PM77 °FPassing clouds.12 mph54%30.04 "HgN/A
3:30 PM77 °FPassing clouds.9 mph57%30.04 "HgN/A
3:00 PM77 °FPassing clouds.10 mph61%30.04 "Hg5 mi
2:30 PM77 °FPassing clouds.12 mph65%30.07 "Hg5 mi
2:00 PM77 °FPassing clouds.12 mph65%30.07 "Hg5 mi
1:30 PM77 °FPassing clouds.12 mph65%30.07 "Hg5 mi
1:00 PM77 °FPassing clouds.10 mph65%30.07 "Hg5 mi
12:30 PM77 °FPassing clouds.12 mph65%30.07 "Hg5 mi
12:00 PM75 °FPassing clouds.13 mph69%30.07 "Hg5 mi
11:30 AM77 °FPassing clouds.14 mph65%30.07 "Hg5 mi
11:00 AM77 °FPassing clouds.14 mph65%30.07 "Hg5 mi
10:30 AM75 °FPassing clouds.15 mph65%30.07 "Hg5 mi
10:00 AM75 °FPassing clouds.15 mph69%30.07 "Hg5 mi
9:30 AM75 °FPassing clouds.15 mph65%30.07 "Hg5 mi
9:00 AM75 °FPassing clouds.14 mph69%30.07 "Hg5 mi
8:30 AM75 °FPassing clouds.14 mph69%30.07 "Hg5 mi
8:00 AM73 °FPassing clouds.13 mph69%30.07 "Hg5 mi
7:30 AM72 °FScattered clouds.12 mph73%30.07 "HgN/A
7:00 AM70 °FScattered clouds.10 mph83%30.07 "HgN/A
6:30 AM68 °FScattered clouds.9 mph88%30.07 "HgN/A
6:00 AM68 °FScattered clouds.7 mph88%30.04 "Hg5 mi
5:30 AM68 °FScattered clouds.5 mph88%30.04 "Hg5 mi
5:00 AM68 °FScattered clouds.6 mph88%30.04 "HgN/A
4:30 AM68 °FScattered clouds.6 mph88%30.04 "HgN/A
4:00 AM68 °FPassing clouds.7 mph88%30.04 "HgN/A
Weather by CustomWeather, © 2016

See weather overviewHow to use our weather pages